GSAT0203 (GALILEO 7) (40544 NORAD) Tracking and Keplerian Element Data

This shows tracking and keplerian element data for the satellite.

Feedback or suggestion? Click here.




ElementValue
Catalog40544
NameGSAT0203 (GALILEO 7)
Epoch Orbit1982
Epoch Day193.65837431
Epoch Year2018
RAAN61.0417
Inclination55.9158
Eccentricity0.0001422
Argument of Perigee256.2619
Mean Anonmoly103.8004
Mean Motion1.70474689
Decay Rate-5.1E-07
L11 40544U 15017A 18193.65837431 -.00000051 00000-0 00000-0 0 9997
L22 40544 55.9158 61.0417 0001422 256.2619 103.8004 1.70474689 19823

Live tracking and technical data element details for GSAT0203 (GALILEO 7) (NORAD 40544). GSAT0203 (GALILEO 7) can be tracked NOW for your location showing map with azimuth and elevation plus other details from your city location.

Track the satellite on the map from your city or location and see movement details for azimuth, elevation, latitude, longitude, range, height, and movement on the map or in text.







IsCatalogInMostPopularTable: catalog: 40544, numindb: 64
Update: records affected: 1



GetName: 40544 GSAT0203 (GALILEO 7)

Hit Count: updated at: Sun, 15 Jul 2018 22:54:42 GMT